TimeEST,TemperatureF,Dew PointF,Humidity,Sea Level PressureIn,VisibilityMPH,Wind Direction,Wind SpeedMPH,Gust SpeedMPH,PrecipitationIn,Events,Conditions,WindDirDegrees,DateUTC
12:53 AM,28.9,21.0,72,30.45,10.0,Calm,Calm,-,N/A,,Partly Cloudy,0,2013-11-20 05:53:00
1:53 AM,27.0,19.9,75,30.47,10.0,Calm,Calm,-,N/A,,Clear,0,2013-11-20 06:53:00
2:53 AM,26.1,19.9,78,30.50,10.0,Calm,Calm,-,N/A,,Clear,0,2013-11-20 07:53:00
3:53 AM,24.1,19.0,81,30.52,10.0,Calm,Calm,-,N/A,,Clear,0,2013-11-20 08:53:00
4:53 AM,24.1,18.0,77,30.54,10.0,Calm,Calm,-,N/A,,Clear,0,2013-11-20 09:53:00
5:53 AM,21.9,17.1,82,30.56,10.0,Calm,Calm,-,N/A,,Clear,0,2013-11-20 10:53:00
6:53 AM,18.0,15.1,88,30.58,10.0,Calm,Calm,-,N/A,,Clear,0,2013-11-20 11:53:00
7:53 AM,19.0,16.0,88,30.60,10.0,Calm,Calm,-,N/A,,Clear,0,2013-11-20 12:53:00
8:53 AM,26.1,19.0,75,30.61,10.0,Calm,Calm,-,N/A,,Clear,0,2013-11-20 13:53:00
9:53 AM,28.9,21.0,72,30.61,10.0,SSE,4.6,-,N/A,,Clear,160,2013-11-20 14:53:00
10:53 AM,30.9,19.9,64,30.61,10.0,SE,3.5,-,N/A,,Clear,130,2013-11-20 15:53:00
11:53 AM,33.1,21.0,61,30.59,10.0,Calm,Calm,-,N/A,,Clear,0,2013-11-20 16:53:00
12:53 PM,36.0,21.0,55,30.57,10.0,Calm,Calm,-,N/A,,Clear,0,2013-11-20 17:53:00
1:53 PM,39.0,19.0,45,30.56,10.0,Calm,Calm,-,N/A,,Clear,0,2013-11-20 18:53:00
2:53 PM,37.9,21.0,51,30.54,10.0,Variable,3.5,-,N/A,,Clear,0,2013-11-20 19:53:00
3:53 PM,35.1,21.9,59,30.53,10.0,ENE,3.5,-,N/A,,Clear,70,2013-11-20 20:53:00
4:53 PM,33.1,23.0,66,30.53,10.0,East,4.6,-,N/A,,Clear,100,2013-11-20 21:53:00
5:53 PM,32.0,21.0,64,30.54,10.0,Calm,Calm,-,N/A,,Clear,0,2013-11-20 22:53:00
6:53 PM,28.9,19.9,69,30.55,10.0,Calm,Calm,-,N/A,,Clear,0,2013-11-20 23:53:00
7:53 PM,30.0,19.0,64,30.54,10.0,Calm,Calm,-,N/A,,Clear,0,2013-11-21 00:53:00
8:53 PM,28.9,15.1,56,30.53,10.0,Calm,Calm,-,N/A,,Clear,0,2013-11-21 01:53:00
9:53 PM,30.0,14.0,51,30.53,10.0,Calm,Calm,-,N/A,,Clear,0,2013-11-21 02:53:00
10:53 PM,33.1,15.1,48,30.53,10.0,SSE,11.5,-,N/A,,Clear,150,2013-11-21 03:53:00
11:53 PM,32.0,12.9,45,30.53,10.0,South,5.8,-,N/A,,Clear,180,2013-11-21 04:53:00